Miscellaneous Local Product
Issued by NWS Hastings, NE

Home | Current Version | Previous Version | Text Only | Print | Product List | Glossary Off
Versions: 1 2 3 4 5 6 7 8 9 10 11 12 13 14 15 16 17 18 19 20 21 22 23 24 25 26 27 28 29 30 31 32 33 34 35 36 37 38 39 40 41 42 43 44 45 46 47 48 49 50

000
AXUS43 KGID 211702
MISGRI

GID CWA HOURLY WEATHER ROUNDUP
NATIONAL WEATHER SERVICE HASTINGS NE
1200 PM CDT MON APR 21 2014

NOTE: "FAIR" INDICATES FEW OR NO CLOUDS BELOW 12,000 FEET WITH NO
SIGNIFICANT WEATHER AND/OR OBSTRUCTIONS TO VISIBILITY.

...SOUTH CENTRAL NEBRASKA...

CITY           SKY/WX    TMP DP  RH WIND       PRES   REMARKS
GRAND ISLAND   SUNNY     68  32  26 N18G30    30.15R
HASTINGS       SUNNY     67  31  26 NE26G33   30.14R
KEARNEY        MOSUNNY   64  37  36 NE17G24   30.17S
ORD            MOSUNNY   67  29  24 N22G30    30.15S
YORK           MOSUNNY   66  34  30 N26G36    30.11R
AURORA         SUNNY     67  35  30 N24G33    30.13R
LEXINGTON      MOSUNNY   65  31  28 NE18      30.19S
HOLDREGE       MOSUNNY   64  34  32 NE21G30   30.17R
HEBRON         MOSUNNY   69  35  29 N21G35    30.08R

...NEBRASKA PANHANDLE...

CITY           SKY/WX    TMP DP  RH WIND       PRES   REMARKS
CHADRON        PTSUNNY   58  26  29 CALM      30.26S
ALLIANCE       PTSUNNY   59  25  27 N8        30.26F
SCOTTSBLUFF    SUNNY     59  23  25 E5        30.28S
SIDNEY         SUNNY     61  22  22 VRB5      30.29R

...WESTERN AND NORTH CENTRAL NEBRASKA...

CITY           SKY/WX    TMP DP  RH WIND       PRES   REMARKS
VALENTINE      SUNNY     64  23  21 N14G26    30.22R
AINSWORTH      SUNNY     65  25  22 N18G26    30.22S
ONEILL         SUNNY     67  20  17 N24       30.17S
BROKEN BOW     SUNNY     64  27  24 N23G33    30.17S
IMPERIAL       MOSUNNY   66  22  18 NE15      30.24R
NORTH PLATTE   SUNNY     67  24  19 N17G26    30.20S
MCCOOK         MOSUNNY   67  27  22 NE15      30.21R

...EASTERN NEBRASKA...

CITY           SKY/WX    TMP DP  RH WIND       PRES   REMARKS
NORFOLK        MOSUNNY   70  30  22 N28G35    30.11R
SO SIOUX CITY  PTSUNNY   71  30  21 N23       30.06R
TEKAMAH        MOSUNNY   72  33  24 N31G38    30.03R
COLUMBUS       PTSUNNY   68  34  28 N26G35    30.11S
ALBION         MOSUNNY   67  25  19 N20G28    30.13R
OMAHA EPPLEY   PTSUNNY   70  52  52 N23       30.01R
OFFUTT AFB     MOSUNNY   69  54  58 N15G25    30.01R
MILLARD        MOSUNNY   68  44  40 N14G28    30.02R
LINCOLN        MOSUNNY   70  39  32 N30G37    30.05R
NEBRASKA CITY  CLOUDY    67  58  72 NW10      30.01R
BEATRICE       PTSUNNY   69  48  46 N16G24    30.05R
FALLS CITY     LGT RAIN  65  57  75 NW8       30.00R

...NORTHERN KANSAS...

CITY           SKY/WX    TMP DP  RH WIND       PRES   REMARKS
GOODLAND       SUNNY     64  26  23 NE18      30.24S
HILL CITY      SUNNY     66  38  35 NE18G28   30.18R
PHILLIPSBURG   SUNNY     68  34  28 N20G30    30.15S
SMITH CENTER   SUNNY     66  37  34 N22G30    30.12R
BELOIT         MOSUNNY   70  43  37 N26G33    30.06S
HAYS           SUNNY     66  52  59 N21       30.13S
RUSSELL        SUNNY     69  49  48 N20G26    30.09R
CONCORDIA      MOSUNNY   71  47  42 N20G29    30.06R
SALINA         CLOUDY    69  52  54 N15       30.05R
TOPEKA         MOSUNNY   68  59  73 NW7       30.00S



USA.gov is the U.S. government's official web portal to all federal, state and local government web resources and services.